Location: *
(28.3744°N, 81.5492°W)
Time: 14:52:49
(UTC+00:00)

ALOS - Pass Details

Date: 15 June 2025
Orbit: 664 x 666 km, 98.1° (Epoch: 16 July)

Event Time Altitude Azimuth Distance (km) Brightness Sun altitude
Rises 08:37:02 0° 359° (N) 3,002 6.2 -20.9°
Reaches altitude 10° 08:39:26 10° 349° (N) 2,086 5.2 -20.5°
Maximum altitude 08:43:27 31° 287° (WNW) 1,151 3.1 -19.9°
Enters shadow 08:43:49 31° 277° (W) 1,162 3.1 -19.8°
